Memphis, TN

8:26 AM CST on December 04, 2016 (GMT -0600)
Memphis International

Weather History for KMEM - February, 2012

Change the Weather History Date:

Friday, February 10, 2012

  Actual Average Record
Temperature  
Mean Temperature 38 °F 44 °F  
Max Temperature 42 °F 53 °F 77 °F (1932)
Min Temperature 34 °F 35 °F 0 °F (1899)
Degree Days  
Heating Degree Days 27 21  
Month to date heating degree days 161 218  
Since 1 July heating degree days 1689 2120  
Cooling Degree Days 0 0  
Month to date cooling degree days 0 0  
Year to date cooling degree days 0 1  
Moisture  
Dew Point 33 °F    
Average Humidity 77    
Maximum Humidity 89    
Minimum Humidity 64    
Precipitation  
Precipitation 0.07 in 0.15 in 1.83 in (1998)
Month to date precipitation 1.47 1.52  
Year to date precipitation 3.20 5.50  
Snow  
Snow T in 0.10 in 3.20 in (2006)
Month to date snowfall T 0.6  
Since 1 July snowfall 1.4 2.7  
Snow Depth 0.00 in    
Sea Level Pressure  
Sea Level Pressure 30.13 in    
Wind  
Wind Speed 7 mph (SSW)    
Max Wind Speed 24 mph    
Max Gust Speed 32 mph    
Visibility 7 miles    
Events Rain    
T = Trace of Precipitation, MM = Missing Value Source: NWS Daily Summary

Daily Weather History Graph

Daily Weather History Graph

Search for Another Location

Airport or City:

Trip Planner

Search our weather history database for the weather conditions in past years. The results will help you decide how hot, cold, wet, or windy it might be!

Date:

Astronomy

Feb. 10, 2012 Rise Set
Actual Time 6:51 AM CST 5:37 PM CST
Civil Twilight 6:25 AM CST 6:03 PM CST
Nautical Twilight 5:55 AM CST 6:33 PM CST
Astronomical Twilight 5:25 AM CST 7:02 PM CST
Moon 9:03 PM CST (2/10) 8:10 AM CST (2/10)
Length of Visible Light 11h 38m
Length of Day
10h 45m
Waning Gibbous, 90% of the Moon is Illuminated
Feb 10
Waning Gibbous
Feb 14
Last Quarter
Feb 21
New
Feb 29
First Quarter
Mar 8
Full

Hourly Weather History & Observations

Time (CST) Temp. Windchill Dew Point Humidity Pressure Visibility Wind Dir Wind Speed Gust Speed Precip Events Conditions
12:54 AM 35.1 °F 31.0 °F 26.1 °F 70% 30.21 in 10.0 mi SSE 4.6 mph - N/A   Mostly Cloudy
1:54 AM 35.1 °F 32.2 °F 26.1 °F 70% 30.19 in 10.0 mi ESE 3.5 mph - N/A   Mostly Cloudy
2:54 AM 35.1 °F - 25.0 °F 67% 30.18 in 10.0 mi Calm Calm - N/A   Scattered Clouds
3:54 AM 35.1 °F 32.2 °F 25.0 °F 67% 30.18 in 10.0 mi SSE 3.5 mph - N/A   Mostly Cloudy
4:54 AM 36.0 °F 30.3 °F 25.0 °F 64% 30.17 in 10.0 mi ESE 6.9 mph - N/A   Overcast
5:54 AM 35.1 °F 29.3 °F 25.0 °F 67% 30.16 in 10.0 mi SE 6.9 mph - N/A   Overcast
6:54 AM 36.0 °F 30.3 °F 26.1 °F 67% 30.16 in 10.0 mi SSE 6.9 mph - N/A   Overcast
7:54 AM 36.0 °F 32.1 °F 27.0 °F 70% 30.17 in 10.0 mi SSW 4.6 mph - N/A   Overcast
8:54 AM 37.9 °F 35.5 °F 27.0 °F 65% 30.17 in 10.0 mi SSE 3.5 mph - N/A   Overcast
9:54 AM 39.0 °F 36.8 °F 28.9 °F 67% 30.17 in 10.0 mi WSW 3.5 mph - 0.00 in   Unknown
10:15 AM 39.2 °F 35.0 °F 30.2 °F 70% 30.16 in 8.0 mi SSW 5.8 mph - 0.00 in Rain Light Rain
10:52 AM 37.4 °F 32.1 °F 33.8 °F 87% 30.15 in 5.0 mi SW 6.9 mph - 0.00 in Rain Light Rain
10:54 AM 37.9 °F 34.4 °F 33.1 °F 83% 30.16 in 5.0 mi SSW 4.6 mph - 0.00 in Rain Light Rain
11:15 AM 37.4 °F 32.8 °F 33.8 °F 87% 30.14 in 5.0 mi South 5.8 mph - 0.01 in Rain Light Rain
11:54 AM 39.9 °F 34.5 °F 35.1 °F 83% 30.12 in 7.0 mi South 8.1 mph - 0.02 in Rain Light Rain
12:54 PM 39.9 °F 34.5 °F 36.0 °F 86% 30.09 in 9.0 mi South 8.1 mph - 0.00 in Rain Light Rain
1:37 PM 39.2 °F 33.6 °F 35.6 °F 87% 30.07 in 6.0 mi South 8.1 mph - 0.00 in Rain Light Rain
1:48 PM 39.2 °F 33.6 °F 37.4 °F 93% 30.07 in 4.0 mi South 8.1 mph - 0.01 in Rain Light Rain
1:54 PM 39.9 °F 35.1 °F 37.0 °F 89% 30.07 in 4.0 mi South 6.9 mph - 0.01 in Rain Light Rain
2:01 PM 41.0 °F 36.4 °F 37.4 °F 87% 30.06 in 4.0 mi South 6.9 mph - 0.00 in Rain Light Rain
2:54 PM 41.0 °F 36.4 °F 37.9 °F 89% 30.06 in 6.0 mi South 6.9 mph - 0.01 in Rain Light Rain
3:54 PM 41.0 °F 38.0 °F 37.9 °F 89% 30.06 in 5.0 mi WSW 4.6 mph - 0.01 in   Overcast
4:54 PM 41.0 °F 37.1 °F 37.9 °F 89% 30.06 in 6.0 mi WSW 5.8 mph - N/A   Overcast
5:54 PM 41.0 °F 37.1 °F 37.9 °F 89% 30.09 in 6.0 mi West 5.8 mph - 0.00 in Rain Light Rain
6:54 PM 42.1 °F 39.2 °F 39.0 °F 89% 30.09 in 6.0 mi West 4.6 mph - 0.00 in   Overcast
7:54 PM 42.1 °F 37.7 °F 39.0 °F 89% 30.12 in 6.0 mi West 6.9 mph - N/A   Overcast
8:21 PM 42.8 °F 38.6 °F 39.2 °F 87% 30.12 in 4.0 mi WNW 6.9 mph - 0.00 in Rain Light Rain
8:47 PM 42.8 °F 35.8 °F 37.4 °F 81% 30.12 in 5.0 mi WNW 13.8 mph - 0.01 in Rain Light Rain
8:54 PM 42.1 °F 35.7 °F 37.0 °F 82% 30.13 in 8.0 mi NW 11.5 mph - 0.01 in   Overcast
9:54 PM 39.9 °F 32.5 °F 34.0 °F 79% 30.14 in 6.0 mi NNW 12.7 mph 21.9 mph 0.01 in   Haze
10:54 PM 37.0 °F 28.5 °F 28.9 °F 73% 30.16 in 10.0 mi NNW 13.8 mph 27.6 mph N/A   Overcast
11:54 PM 36.0 °F 26.7 °F 27.0 °F 70% 30.16 in 10.0 mi North 15.0 mph 25.3 mph N/A   Overcast